KC9Q Weather Reports


time (UTC)temp
C
wind
direction
speed
KPH
gust
KPH
rain 1hr
cm
rain 24hr
cm
rain mn
cm
humidity
%
barometer
mb
20260504160326 25 205 16.1 22.5 0.00 0.00 0.00 43 1010.0
20260504150750 22 221 19.3 27.4 0.00 0.00 0.00 51 1010.3
20260504150247 22 236 20.9 32.2 0.00 0.00 0.00 50 1010.4
20260504141217 21 208 12.9 27.4 0.00 0.00 0.00 57 1010.7
20260504140714 20 218 17.7 24.1 0.00 0.00 0.00 57 1010.7
20260504140209 20 216 16.1 22.5 0.00 0.00 0.00 58 1010.9
20260504130637 18 231 9.7 17.7 0.00 0.00 0.00 66 1011.1
20260504130134 18 204 8.0 11.3 0.00 0.00 0.00 66 1011.0
20260504110525 16 191 8.0 8.0 0.00 0.00 0.00 65 1010.4
20260504100442 17 212 8.0 9.7 0.00 0.00 0.00 61 1010.3
20260504081841 17 198 6.4 14.5 0.00 0.00 0.00 59 1010.1
20260504081337 17 212 8.0 12.9 0.00 0.00 0.00 59 1010.2
20260504080833 17 203 6.4 14.5 0.00 0.00 0.00 59 1010.3
20260504080331 17 222 12.9 16.1 0.00 0.00 0.00 59 1010.4
20260504070258 18 196 14.5 24.1 0.00 0.00 0.00 56 1010.4
20260504060218 17 196 9.7 14.5 0.00 0.00 0.00 57 1011.3
20260504050646 16 216 11.3 11.3 0.00 0.00 0.00 58 1011.9
20260504050143 16 193 6.4 9.7 0.00 0.00 0.00 58 1012.0
20260504045640 16 199 9.7 11.3 0.00 0.00 0.00 58 1012.0
20260504045140 16 180 6.4 9.7 0.00 0.00 0.00 57 1011.9
20260504044638 16 194 9.7 11.3 0.00 0.00 0.00 57 1012.0
20260504044135 16 180 8.0 14.5 0.00 0.00 0.00 57 1011.8
20260504043632 17 187 11.3 14.5 0.00 0.00 0.00 56 1011.8
20260504043129 16 190 9.7 12.9 0.00 0.00 0.00 56 1012.1
20260504042626 17 203 8.0 12.9 0.00 0.00 0.00 55 1012.0
20260504042123 16 184 6.4 14.5 0.00 0.00 0.00 55 1011.8
20260504041619 16 184 8.0 11.3 0.00 0.00 0.00 55 1011.9
20260504041115 17 188 9.7 12.9 0.00 0.00 0.00 54 1011.9
20260504040613 17 182 9.7 12.9 0.00 0.00 0.00 54 1011.9
20260504040109 17 179 9.7 12.9 0.00 0.00 0.00 53 1012.0
20260504035606 17 199 6.4 11.3 0.00 0.00 0.00 53 1012.1
20260504035102 17 193 8.0 11.3 0.00 0.00 0.00 53 1012.0
20260504034600 17 200 9.7 14.5 0.00 0.00 0.00 53 1012.0
20260504034057 17 200 9.7 11.3 0.00 0.00 0.00 53 1012.2
20260504033555 17 174 8.0 11.3 0.00 0.00 0.00 52 1012.3
20260504033052 17 209 6.4 9.7 0.00 0.00 0.00 52 1012.5
20260504032549 17 171 8.0 8.0 0.00 0.00 0.00 51 1012.4
20260504032046 17 179 8.0 9.7 0.00 0.00 0.00 51 1012.4
20260504031543 17 184 8.0 11.3 0.00 0.00 0.00 50 1012.4
20260504031039 17 184 9.7 11.3 0.00 0.00 0.00 50 1012.4
20260504030536 17 189 6.4 11.3 0.00 0.00 0.00 50 1012.4
20260504030032 17 177 8.0 8.0 0.00 0.00 0.00 50 1012.5
20260504025530 17 185 4.8 11.3 0.00 0.00 0.00 50 1012.4
20260504025026 17 180 4.8 11.3 0.00 0.00 0.00 50 1012.5
20260504024523 17 182 4.8 9.7 0.00 0.00 0.00 49 1012.6
20260504024020 17 174 6.4 9.7 0.00 0.00 0.00 49 1012.6
20260504023517 17 186 6.4 8.0 0.00 0.00 0.00 49 1012.5
20260504023013 17 178 8.0 11.3 0.00 0.00 0.00 48 1012.6
20260504022508 17 197 6.4 9.7 0.00 0.00 0.00 48 1012.4
20260504022005 18 193 6.4 9.7 0.00 0.00 0.00 48 1012.3
20260504021503 18 182 8.0 9.7 0.00 0.00 0.00 47 1012.4
20260504021000 18 210 6.4 9.7 0.00 0.00 0.00 47 1012.4
20260504020456 18 187 6.4 12.9 0.00 0.00 0.00 46 1012.3
20260504015953 18 185 8.0 11.3 0.00 0.00 0.00 45 1012.2
20260504015449 18 192 11.3 11.3 0.00 0.00 0.00 45 1012.3
20260504014945 18 181 9.7 9.7 0.00 0.00 0.00 45 1012.1
20260504014441 18 179 8.0 11.3 0.00 0.00 0.00 44 1012.0
20260504013938 18 198 6.4 11.3 0.00 0.00 0.00 44 1012.2
20260504013437 18 200 8.0 12.9 0.00 0.00 0.00 44 1012.3
20260504012932 18 183 6.4 9.7 0.00 0.00 0.00 44 1012.2
20260504012431 18 196 8.0 9.7 0.00 0.00 0.00 44 1012.2
20260504011928 18 198 6.4 9.7 0.00 0.00 0.00 43 1012.1
20260504011425 19 177 11.3 11.3 0.00 0.00 0.00 43 1012.0
20260504010920 19 189 9.7 14.5 0.00 0.00 0.00 42 1012.0
20260504010417 19 202 9.7 9.7 0.00 0.00 0.00 41 1012.3
20260504005913 20 207 8.0 9.7 0.00 0.00 0.00 41 1012.1
20260504005410 20 179 6.4 11.3 0.00 0.00 0.00 40 1012.3
20260504004908 20 217 6.4 11.3 0.00 0.00 0.00 39 1012.2
20260504004405 20 227 11.3 11.3 0.00 0.00 0.00 39 1012.4
20260504003901 20 195 6.4 9.7 0.00 0.00 0.00 39 1012.4
20260504003358 20 210 4.8 9.7 0.00 0.00 0.00 37 1012.5
20260504002855 20 201 6.4 11.3 0.00 0.00 0.00 36 1012.5
20260504002351 21 221 12.9 16.1 0.00 0.00 0.00 36 1012.3
20260504001849 21 219 9.7 11.3 0.00 0.00 0.00 35 1012.6
20260504001346 21 198 9.7 11.3 0.00 0.00 0.00 35 1012.5
20260504000843 21 209 19.3 24.1 0.00 0.00 0.00 34 1012.4
20260504000340 21 207 12.9 17.7 0.00 0.00 0.00 34 1012.3
20260503235838 21 214 11.3 17.7 0.00 0.00 0.00 34 1012.3
20260503235335 21 209 11.3 17.7 0.00 0.00 0.00 32 1012.4
20260503234832 21 224 14.5 17.7 0.00 0.00 0.00 32 1012.4
20260503234330 21 196 12.9 17.7 0.00 0.00 0.00 32 1012.4
20260503233828 21 198 11.3 19.3 0.00 0.00 0.00 34 1012.4
20260503233323 21 218 9.7 20.9 0.00 0.00 0.00 34 1012.6
20260503232820 21 206 12.9 17.7 0.00 0.00 0.00 34 1012.6
20260503232318 21 191 14.5 17.7 0.00 0.00 0.00 34 1012.6
20260503231815 21 204 11.3 16.1 0.00 0.00 0.00 35 1012.6
20260503231312 21 201 11.3 16.1 0.00 0.00 0.00 34 1012.7
20260503230808 22 172 20.9 20.9 0.00 0.00 0.00 33 1012.7
20260503230305 22 219 19.3 22.5 0.00 0.00 0.00 33 1012.7
20260503225803 21 228 12.9 19.3 0.00 0.00 0.00 34 1012.8
20260503225258 22 182 11.3 25.7 0.00 0.00 0.00 33 1012.9
20260503224755 22 206 14.5 20.9 0.00 0.00 0.00 33 1013.0
20260503224253 22 216 16.1 24.1 0.00 0.00 0.00 32 1013.2
20260503223750 22 204 11.3 19.3 0.00 0.00 0.00 34 1013.4
20260503223248 22 208 14.5 27.4 0.00 0.00 0.00 32 1013.3
20260503222743 22 197 9.7 19.3 0.00 0.00 0.00 33 1013.2
20260503222242 22 218 12.9 16.1 0.00 0.00 0.00 32 1013.5
20260503221740 22 181 14.5 20.9 0.00 0.00 0.00 33 1013.4
20260503221237 22 195 17.7 24.1 0.00 0.00 0.00 32 1013.5
20260503220733 22 196 11.3 27.4 0.00 0.00 0.00 33 1013.5
20260503220231 22 220 11.3 17.7 0.00 0.00 0.00 34 1013.7
20260503215727 22 196 11.3 20.9 0.00 0.00 0.00 34 1013.6
20260503215224 22 206 6.4 19.3 0.00 0.00 0.00 33 1013.9
20260503214722 22 221 19.3 22.5 0.00 0.00 0.00 31 1014.0
20260503214219 22 222 14.5 19.3 0.00 0.00 0.00 33 1014.0
20260503213717 22 190 11.3 20.9 0.00 0.00 0.00 33 1014.0
20260503213214 22 197 12.9 17.7 0.00 0.00 0.00 34 1014.1
20260503212711 22 210 11.3 22.5 0.00 0.00 0.00 33 1014.3
20260503212209 22 223 17.7 27.4 0.00 0.00 0.00 34 1014.1
20260503211706 22 214 9.7 20.9 0.00 0.00 0.00 35 1014.2
20260503211201 21 207 12.9 17.7 0.00 0.00 0.00 36 1014.5
20260503210658 21 231 17.7 24.1 0.00 0.00 0.00 34 1014.6
20260503210155 21 166 11.3 22.5 0.00 0.00 0.00 34 1014.6
20260503205650 21 216 22.5 25.7 0.00 0.00 0.00 33 1014.7
20260503205147 22 217 12.9 17.7 0.00 0.00 0.00 36 1014.7
20260503204643 22 199 9.7 25.7 0.00 0.00 0.00 36 1015.1
20260503204141 21 208 12.9 24.1 0.00 0.00 0.00 33 1014.9
20260503203638 22 218 9.7 20.9 0.00 0.00 0.00 33 1015.1
20260503203136 21 196 12.9 25.7 0.00 0.00 0.00 34 1015.3
20260503202633 21 173 6.4 17.7 0.00 0.00 0.00 34 1015.3
20260503202131 21 223 27.4 37.0 0.00 0.00 0.00 33 1015.4
20260503201628 21 226 24.1 27.4 0.00 0.00 0.00 34 1015.7
20260503201126 21 203 11.3 22.5 0.00 0.00 0.00 35 1015.7
20260503200621 21 240 19.3 25.7 0.00 0.00 0.00 36 1015.9
20260503200118 21 202 14.5 32.2 0.00 0.00 0.00 36 1016.1
20260503195615 21 238 20.9 37.0 0.00 0.00 0.00 35 1016.2
20260503195112 21 221 20.9 27.4 0.00 0.00 0.00 34 1016.2
20260503194609 21 222 22.5 33.8 0.00 0.00 0.00 34 1016.6
20260503194104 21 215 9.7 20.9 0.00 0.00 0.00 35 1016.8
20260503193601 21 208 20.9 38.6 0.00 0.00 0.00 34 1016.6
20260503193056 21 200 8.0 20.9 0.00 0.00 0.00 36 1016.8
20260503192552 20 222 30.6 32.2 0.00 0.00 0.00 35 1017.1
20260503192049 20 215 14.5 24.1 0.00 0.00 0.00 35 1016.8
20260503191545 20 191 11.3 27.4 0.00 0.00 0.00 36 1017.0
20260503191042 20 226 20.9 35.4 0.00 0.00 0.00 35 1017.1
20260503190539 20 232 20.9 35.4 0.00 0.00 0.00 36 1017.3
20260503190037 20 229 16.1 32.2 0.00 0.00 0.00 35 1017.4
20260503185533 20 223 22.5 37.0 0.00 0.00 0.00 36 1017.6
20260503185032 20 211 16.1 20.9 0.00 0.00 0.00 38 1017.6
20260503184529 20 225 27.4 30.6 0.00 0.00 0.00 36 1017.8
20260503184026 20 212 17.7 32.2 0.00 0.00 0.00 37 1017.8
20260503183522 20 215 19.3 29.0 0.00 0.00 0.00 36 1017.8
20260503183019 20 187 11.3 16.1 0.00 0.00 0.00 38 1018.0
20260503182518 20 228 22.5 25.7 0.00 0.00 0.00 39 1017.9
20260503182015 20 217 14.5 16.1 0.00 0.00 0.00 38 1018.3
20260503181512 19 212 6.4 14.5 0.00 0.00 0.00 42 1018.4
20260503181008 19 188 6.4 17.7 0.00 0.00 0.00 40 1018.5
20260503180506 19 215 12.9 29.0 0.00 0.00 0.00 38 1018.6
20260503180003 18 206 9.7 19.3 0.00 0.00 0.00 43 1018.6
20260503175501 18 221 9.7 27.4 0.00 0.00 0.00 40 1018.6
20260503174956 19 204 9.7 19.3 0.00 0.00 0.00 42 1018.7
20260503174455 18 218 12.9 25.7 0.00 0.00 0.00 43 1019.0
20260503173950 18 199 8.0 22.5 0.00 0.00 0.00 40 1019.2
20260503173446 18 195 11.3 19.3 0.00 0.00 0.00 41 1019.4
20260503172943 18 207 16.1 17.7 0.00 0.00 0.00 44 1019.4
20260503172440 18 204 11.3 19.3 0.00 0.00 0.00 41 1019.4
20260503171937 18 215 14.5 29.0 0.00 0.00 0.00 40 1019.7
20260503171433 18 216 9.7 17.7 0.00 0.00 0.00 41 1019.5
20260503170931 18 204 12.9 19.3 0.00 0.00 0.00 40 1019.5
20260503170427 18 207 9.7 20.9 0.00 0.00 0.00 40 1019.7